Volver al catálogo

STARLINK-30823

ActivoComunicacionesVLEO
NORAD 58248·PAYLOAD·🇺🇸 United States

Lanzado Nov 8, 2023 desde Cape Canaveral Space Force Station

Loading…

Próximos Pases (próximas 24 horas)

TLE

ActualizadoSource: CelesTrak SupGP

Época: Sep 14, 2026, 22:00 UTC

1 58248C 23171U   26257.91715278 -.00020782  00000+0 -75279-3 0  2573
2 58248  43.0025 296.6018 0001905 264.7740 113.0065 15.27585054    19

Sigue STARLINK-30823 en tiempo real con AllMySat

Download on the App Store